Weather History for K5M9 - February, 2014

Change the Weather History Date:

Sunday, February 23, 2014

  Actual Average (KPAH) Record (KPAH)
Temperature  
Mean Temperature 35 °F 42 °F  
Max Temperature 43 °F 52 °F 75 °F (1982)
Min Temperature 27 °F 32 °F 13 °F (1968)
Degree Days  
Heating Degree Days 30 23  
Month to date heating degree days 610  
Since 1 July heating degree days 3183  
Cooling Degree Days 0 0  
Month to date cooling degree days 0  
Year to date cooling degree days 0  
Moisture  
Dew Point 28 °F    
Average Humidity 73    
Maximum Humidity 88    
Minimum Humidity 57    
Precipitation  
Precipitation 0.00 in 0.14 in 1.68 in (1962)
Month to date precipitation 3.22  
Year to date precipitation 6.90  
Snow  
Snow 0.00 in 0.10 in 1.00 in (1966)
Month to date snowfall 2.8  
Since 1 July snowfall 8.1  
Snow Depth -    
Sea Level Pressure  
Sea Level Pressure 30.11 in    
Wind  
Wind Speed 9 mph (NNE)    
Max Wind Speed 18 mph    
Max Gust Speed 25 mph    
Visibility 10 miles    
Events Rain    
T = Trace of Precipitation, MM = Missing Value Source: NWS Daily Summary

Daily Weather History Graph

Daily Weather History Graph

Search for Another Location

Airport or City:

Trip Planner

Search our weather history database for the weather conditions in past years. The results will help you decide how hot, cold, wet, or windy it might be!

Date:

Astronomy

Feb. 23, 2014 Rise Set
Actual Time 6:31 AM CST 5:40 PM CST
Civil Twilight 6:05 AM CST 6:06 PM CST
Nautical Twilight 5:34 AM CST 6:37 PM CST
Astronomical Twilight 5:04 AM CST 7:07 PM CST
Moon 1:25 AM CST 11:46 AM CST
Length of Visible Light 12h 01m
Length of Day
11h 08m
Last Quarter, 38% of the Moon is Illuminated
Feb 23
Last Quarter
Mar 1
New
Mar 8
First Quarter
Mar 16
Full
Mar 23
Last Quarter

Hourly Weather History & Observations

Time (CST) Temp. Windchill Dew Point Humidity Pressure Visibility Wind Dir Wind Speed Gust Speed Precip Events Conditions
12:15 AM 42.8 °F 38.6 °F 29.8 °F 60% 29.99 in 10.0 mi NNE 6.9 mph - N/A   Clear
12:35 AM 39.7 °F 34.9 °F 31.5 °F 72% 29.99 in 10.0 mi NE 6.9 mph - N/A   Clear
12:55 AM 39.6 °F 35.4 °F 32.0 °F 74% 30.00 in 10.0 mi North 5.8 mph - N/A   Clear
1:15 AM 38.3 °F 33.9 °F 32.0 °F 78% 30.01 in 10.0 mi North 5.8 mph - N/A   Clear
1:35 AM 37.6 °F 34.0 °F 32.0 °F 80% 30.01 in 10.0 mi NNE 4.6 mph - N/A   Clear
1:55 AM 36.7 °F 32.0 °F 31.8 °F 83% 30.01 in 10.0 mi NNE 5.8 mph - N/A   Clear
2:15 AM 36.5 °F 31.0 °F 31.8 °F 83% 30.00 in 10.0 mi NNE 6.9 mph - N/A   Clear
2:35 AM 35.6 °F 29.9 °F 31.5 °F 85% 30.00 in 10.0 mi NE 6.9 mph - N/A   Clear
2:55 AM 35.4 °F 29.7 °F 31.6 °F 86% 29.99 in 10.0 mi NNE 6.9 mph - N/A   Clear
3:15 AM 35.1 °F 28.6 °F 31.1 °F 85% 29.99 in 10.0 mi NE 8.1 mph - N/A   Clear
3:35 AM 34.3 °F 28.4 °F 30.9 °F 87% 29.99 in 10.0 mi ENE 6.9 mph - N/A   Clear
3:55 AM 34.5 °F 27.9 °F 30.7 °F 86% 29.98 in 10.0 mi ENE 8.1 mph - N/A   Clear
4:15 AM 34.3 °F 28.4 °F 30.2 °F 85% 29.97 in 10.0 mi East 6.9 mph - N/A   Clear
4:35 AM 34.5 °F 27.9 °F 30.7 °F 86% 29.97 in 10.0 mi NE 8.1 mph - N/A   Clear
4:55 AM 33.8 °F 27.0 °F 30.4 °F 87% 29.97 in 10.0 mi ENE 8.1 mph - N/A   Clear
5:15 AM 33.6 °F 27.5 °F 30.2 °F 87% 29.98 in 10.0 mi ENE 6.9 mph - N/A   Clear
5:35 AM 33.8 °F 27.7 °F 30.4 °F 87% 29.99 in 10.0 mi NE 6.9 mph - N/A   Clear
5:55 AM 33.4 °F 27.3 °F 30.2 °F 88% 30.01 in 10.0 mi North 6.9 mph - N/A   Clear
6:15 AM 33.8 °F 27.7 °F 30.2 °F 87% 30.02 in 10.0 mi North 6.9 mph - N/A   Clear
6:35 AM 33.4 °F 26.6 °F 30.2 °F 88% 30.02 in 10.0 mi North 8.1 mph - N/A   Clear
6:55 AM 34.5 °F 27.3 °F 31.1 °F 87% 30.04 in 10.0 mi North 9.2 mph - N/A   Clear
7:15 AM 35.2 °F 28.1 °F 31.5 °F 86% 30.06 in 10.0 mi North 9.2 mph - N/A   Clear
7:35 AM 36.7 °F 29.4 °F 32.0 °F 83% 30.08 in 10.0 mi North 10.4 mph 16.1 mph N/A   Scattered Clouds
7:55 AM 37.6 °F 30.0 °F 32.2 °F 81% 30.09 in 10.0 mi North 11.5 mph 18.4 mph N/A   Mostly Cloudy
8:15 AM 36.5 °F 28.7 °F 32.0 °F 84% 30.09 in 10.0 mi North 11.5 mph 21.9 mph N/A   Overcast
8:35 AM 36.3 °F 28.4 °F 32.4 °F 86% 30.09 in 10.0 mi NNE 11.5 mph 25.3 mph N/A   Overcast
8:55 AM 36.7 °F 28.9 °F 32.9 °F 86% 30.09 in 10.0 mi NNE 11.5 mph 21.9 mph N/A   Overcast
9:15 AM 36.7 °F 28.4 °F 32.9 °F 86% 30.11 in 10.0 mi NNE 12.7 mph 19.6 mph N/A   Overcast
9:35 AM 36.1 °F 27.3 °F 32.5 °F 87% 30.11 in 10.0 mi NNE 13.8 mph 23.0 mph N/A   Overcast
9:55 AM 36.9 °F 28.2 °F 32.4 °F 84% 30.11 in 10.0 mi NNE 13.8 mph 23.0 mph N/A   Overcast
10:15 AM 37.9 °F 29.2 °F 32.0 °F 79% 30.10 in 10.0 mi NNE 15.0 mph 23.0 mph N/A   Overcast
10:35 AM 40.3 °F 31.3 °F 32.4 °F 73% 30.09 in 10.0 mi NE 18.4 mph 21.9 mph N/A   Mostly Cloudy
10:55 AM 41.7 °F 33.4 °F 32.9 °F 71% 30.10 in 10.0 mi NNE 17.3 mph 21.9 mph N/A   Scattered Clouds
11:15 AM 43.3 °F 36.1 °F 33.6 °F 69% 30.11 in 10.0 mi NE 15.0 mph 20.7 mph N/A   Mostly Cloudy
11:35 AM 43.3 °F 36.8 °F 33.1 °F 67% 30.11 in 10.0 mi North 12.7 mph 20.7 mph N/A   Mostly Cloudy
11:55 AM 42.8 °F 36.6 °F 32.7 °F 68% 30.12 in 10.0 mi North 11.5 mph - N/A   Overcast
12:15 PM 42.4 °F 36.5 °F 33.1 °F 69% 30.11 in 10.0 mi NNE 10.4 mph 19.6 mph N/A   Overcast
12:35 PM 42.6 °F 35.9 °F 32.5 °F 68% 30.12 in 10.0 mi North 12.7 mph 18.4 mph N/A   Overcast
12:55 PM 43.2 °F 35.9 °F 33.4 °F 69% 30.11 in 10.0 mi NE 15.0 mph 18.4 mph N/A   Overcast
1:15 PM 43.3 °F 37.2 °F 33.3 °F 68% 30.11 in 10.0 mi NE 11.5 mph 19.6 mph N/A   Overcast
1:35 PM 41.4 °F 34.3 °F 32.4 °F 70% 30.11 in 10.0 mi NE 12.7 mph 20.7 mph N/A   Overcast
1:55 PM 41.4 °F 35.2 °F 32.4 °F 70% 30.11 in 10.0 mi NNE 10.4 mph 18.4 mph N/A   Overcast
2:15 PM 41.2 °F 33.7 °F 32.0 °F 70% 30.12 in 10.0 mi NE 13.8 mph - N/A   Overcast
2:35 PM 41.0 °F 34.7 °F 32.0 °F 70% 30.12 in 10.0 mi NNE 10.4 mph - N/A Rain Light Rain
2:55 PM 41.0 °F 34.3 °F 30.2 °F 65% 30.13 in 10.0 mi North 11.5 mph - N/A   Overcast
3:15 PM 40.5 °F 34.1 °F 28.2 °F 62% 30.13 in 10.0 mi NNE 10.4 mph - N/A   Overcast
3:35 PM 39.6 °F 31.7 °F 25.7 °F 58% 30.13 in 10.0 mi North 13.8 mph 19.6 mph N/A   Overcast
3:55 PM 38.5 °F 30.3 °F 24.4 °F 57% 30.14 in 10.0 mi North 13.8 mph 19.6 mph N/A   Overcast
4:15 PM 37.9 °F 29.6 °F 25.9 °F 62% 30.15 in 10.0 mi North 13.8 mph 18.4 mph N/A   Overcast
4:35 PM 37.8 °F 32.5 °F 28.2 °F 68% 30.16 in 10.0 mi North 6.9 mph - N/A   Mostly Cloudy
4:55 PM 37.2 °F 29.6 °F 28.8 °F 71% 30.16 in 10.0 mi NNE 11.5 mph - N/A   Scattered Clouds
5:15 PM 35.8 °F 27.3 °F 28.6 °F 75% 30.17 in 10.0 mi North 12.7 mph 18.4 mph N/A   Scattered Clouds
5:35 PM 35.1 °F 27.4 °F 26.6 °F 71% 30.18 in 10.0 mi North 10.4 mph - N/A   Scattered Clouds
5:55 PM 34.7 °F 27.5 °F 22.1 °F 60% 30.19 in 10.0 mi North 9.2 mph - N/A   Scattered Clouds
6:15 PM 33.6 °F 26.8 °F 21.9 °F 62% 30.19 in 10.0 mi North 8.1 mph - N/A   Clear
6:35 PM 33.1 °F 24.9 °F 21.7 °F 63% 30.19 in 10.0 mi North 10.4 mph - N/A   Clear
6:55 PM 32.5 °F 24.8 °F 21.4 °F 64% 30.21 in 10.0 mi North 9.2 mph 16.1 mph N/A   Clear
7:15 PM 32.0 °F 23.6 °F 19.9 °F 61% 30.21 in 10.0 mi North 10.4 mph - N/A   Clear
7:35 PM 31.5 °F 23.5 °F 18.9 °F 60% 30.23 in 10.0 mi North 9.2 mph - N/A   Clear
7:55 PM 31.1 °F 24.5 °F 18.7 °F 60% 30.23 in 10.0 mi North 6.9 mph - N/A   Clear
8:15 PM 30.6 °F 22.4 °F 19.2 °F 63% 30.23 in 10.0 mi North 9.2 mph - N/A   Clear
8:35 PM 30.2 °F 22.6 °F 19.2 °F 64% 30.24 in 10.0 mi North 8.1 mph - N/A   Clear
8:55 PM 30.0 °F 23.2 °F 18.9 °F 63% 30.24 in 10.0 mi North 6.9 mph - N/A   Clear
9:15 PM 29.8 °F 21.5 °F 18.3 °F 62% 30.25 in 10.0 mi North 9.2 mph - N/A   Clear
9:35 PM 29.3 °F 21.5 °F 17.2 °F 61% 30.26 in 10.0 mi North 8.1 mph - N/A   Clear
9:55 PM 29.1 °F 20.6 °F 16.5 °F 59% 30.26 in 10.0 mi North 9.2 mph - N/A   Clear
10:15 PM 28.4 °F 20.4 °F 16.5 °F 61% 30.26 in 10.0 mi North 8.1 mph - N/A   Clear
10:35 PM 28.4 °F 19.7 °F 16.5 °F 61% 30.26 in 10.0 mi North 9.2 mph - N/A   Clear
10:55 PM 27.9 °F 19.8 °F 16.2 °F 62% 30.26 in 10.0 mi North 8.1 mph - N/A   Clear
11:15 PM 27.7 °F 18.8 °F 15.4 °F 60% 30.27 in 10.0 mi North 9.2 mph - N/A   Clear
11:35 PM 27.5 °F 20.2 °F 15.1 °F 60% 30.27 in 10.0 mi North 6.9 mph - N/A   Clear
11:55 PM 27.5 °F 22.2 °F 15.8 °F 61% 30.28 in 10.0 mi North 4.6 mph - N/A   Clear